Regional Weather Roundup
Issued by NWS

Home | Current Version | Previous Version | Graphics & Text | Print | Product List | Glossary On
Versions: 1 2 3 4 5 6 7 8 9 10 11 12 13 14 15 16 17 18 19 20 21 22 23 24 25 26 27 28 29 30 31 32 33 34 35 36 37 38 39 40 41 42 43 44 45 46 47 48
000
ASUS45 KBOU 211907
RWRCO

WEATHER ROUNDUP FOR COLORADO
NATIONAL WEATHER SERVICE DENVER/BOULDER CO
100 PM MDT SUN SEP 21 2014

NOTE: "FAIR" INDICATES FEW OR NO CLOUDS BELOW 12000 FEET WITH NO
SIGNIFICANT WEATHER AND/OR OBSTRUCTIONS TO VISIBILITY.

COZ001>005-013-030-031-212000-
...NORTHWEST COLORADO...

CITY           SKY/WX    TMP DP  RH WIND       PRES   REMARKS
CRAIG          LGT RAIN  62  52  69 NW8       30.38F
HAYDEN         CLOUDY    66  46  48 NW10G16   30.38F
MEEKER         NOT AVBL
MOUNT WERNER   NOT AVBL
STEAMBOAT SPGS CLOUDY    65  46  50 W7        30.40S
WALDEN         CLOUDY    66  41  39 SW14G23   30.43F
$$

COZ006>008-011-212000-
...WEST CENTRAL VALLEYS...

CITY           SKY/WX    TMP DP  RH WIND       PRES   REMARKS
GRAND JUNCTION MOSUNNY   72  56  57 SE13      30.24F
MONTROSE       SUNNY     73  55  53 VRB5      30.30F
EAGLE          CLOUDY    63  52  67 SW12      30.43F
RIFLE          CLOUDY    66  52  60 NE12      30.32F
DELTA          RAIN      77  53  43 E8        30.27F
NUCLA          PTSUNNY   77  45  31 W3        30.29F
$$

COZ017>023-064>068-212000-
...SOUTHWEST COLORADO...

CITY           SKY/WX    TMP DP  RH WIND       PRES   REMARKS
DURANGO        MOSUNNY   72  52  49 CALM      30.35F
CORTEZ         MOSUNNY   80  51  36 S14G28    30.29F
PAGOSA SPRINGS MOSUNNY   73  40  29 S12G17    30.42F THUNDER
TELLURIDE      NOT AVBL
WOLF CREEK PAS CLOUDY    50  41  71 SW10      30.70F
$$

COZ009-010-012-014-032>034-037-058>063-212000-
...CENTRAL COLORADO...

CITY           SKY/WX    TMP DP  RH WIND       PRES   REMARKS
ASPEN          CLOUDY    60  47  61 CALM      30.48F
BUENA VISTA    CLOUDY    58  52  79 SE5       30.50F
COPPER MTN     TSTM      46  41  81 S16G22    30.71S
BERTHOUD PASS  TSTM      37  36  93 NE6       30.75F VSB 1
COTTONWOOD PAS CLOUDY    54  43  66 W13G21    30.60F
GUNNISON       PTSUNNY   61  48  63 NE6       30.49F
KREMMLING      CLOUDY    66  43  42 W13G18    30.43S
LEADVILLE      CLOUDY    53  42  66 S8        30.59S
MONARCH PASS   PTSUNNY   45  43  93 S7        30.82F
SALIDA         CLOUDY    62  53  72 CALM      30.54F
SUNLIGHT       CLOUDY    46  46 100 SE6       30.64F
WILKERSON PASS NOT AVBL
$$

COZ069>075-212000-
...SAN LUIS VALLEY/SANGRE DE CRISTO MOUNTAINS...

CITY           SKY/WX    TMP DP  RH WIND       PRES   REMARKS
ALAMOSA        MOSUNNY   74  41  30 VRB7      30.41F
LA VETA PASS   RAIN      48  46  93 NE12      30.61F VSB<1/4
SAGUACHE       NOT AVBL
$$

COZ035-036-038>040-212000-
...NORTHERN COLORADO FRONT RANGE...

CITY           SKY/WX    TMP DP  RH WIND       PRES   REMARKS
DENVER INTL AP CLOUDY    72  48  42 N6        30.33F
DMNS CITY PARK   N/A     70  47  45 NW3       30.32F
AURORA         PTSUNNY   72  52  49 S9        30.34F
FRONT RANGE AP NOT AVBL
ERIE MUNI ARPT NOT AVBL
BOULDER MUN AP PTSUNNY   68  46  45 CALM      30.34F
CENTENNIAL     PTSUNNY   68  52  56 S18       30.34F
BROOMFIELD     PTSUNNY   68  46  45 CALM      30.35F
FORT COLLINS   PTSUNNY   72  46  40 E8        30.34F
LONGMONT       PTSUNNY   72  46  39 E5        30.35F
$$

COZ041-046-047-076>085-087-088-212000-
...PIKES PEAK/PALMER DIVIDE AND SOUTHERN FOOTHILLS...

CITY           SKY/WX    TMP DP  RH WIND       PRES   REMARKS
COLO. SPRINGS  PTSUNNY   68  48  48 S18G25    30.43F
A. F. ACADEMY  PTSUNNY   67  49  53 S16G24    30.43F
ELLICOTT       NOT AVBL
FALCON         PTSUNNY   66  46  48 S17       30.46F
FORT CARSON    CLOUDY    68  50  52 S13       30.41F
LIMON          MOSUNNY   70  41  34 S13G23    30.39F
MONUMENT HILL  CLOUDY    64  48  55 S21       30.43F
TRINIDAD       PTSUNNY   70  52  52 E14       30.38F
$$

COZ042>045-048>051-090-091-212000-
...NORTHEAST COLORADO...

CITY           SKY/WX    TMP DP  RH WIND       PRES   REMARKS
GREELEY ARPT   PTSUNNY   72  46  40 SE9       30.33F
AKRON          PTSUNNY   69  40  34 SE17G23   30.37F
BURLINGTON     PTSUNNY   71  37  28 MISG      30.37F
WRAY           PTSUNNY   76  36  23 E8        30.35F
STERLING       PTSUNNY   73  43  33 SE12      30.34F
HOLYOKE        SUNNY     77  37  24 CALM      30.35F
FORT MORGAN    SUNNY     73  40  30 SE14G20   30.35F
$$

COZ086-089-092>099-212000-
...SOUTHEAST COLORADO...

CITY           SKY/WX    TMP DP  RH WIND       PRES   REMARKS
PUEBLO         CLOUDY    68  51  54 E10       30.36F
LA JUNTA       PTSUNNY   74  42  31 E9        30.35F
LAMAR          MOSUNNY   74  41  30 SE9       30.32F
SPRINGFIELD      N/A     76  45  33 SE10G18   30.34F
$$



USA.gov is the U.S. government's official web portal to all federal, state and local government web resources and services.